TRA71K EHRD-LIPQ

Flight info

Callsign TRA71K
Flight time 1h 25m
Altitude 39000
Route LUNIX Z739 MISGO DCT DOJOH DCT DODEN DCT NEGIX DCT DINKU M867 XERUM/N0449F350 DCT BAVAX/N0447F330 DCT RADIZ DCT URAVA P125 LUPIN
Aircraft B738/M-SDE2E3FGHIJ1P2RWXY/LB1

Departure

Time 2026-04-25 10:44
Airport Rotterdam The Hague Airport (EHRD)

Arrival

Time 2026-04-25 12:09
Airport Trieste Airport (LIPQ)
Time Latitude Longitude Altitude Speed Heading
2026-04-25 10:03 51.94918 4.43528 0 ft 0 kts 327°
2026-04-25 10:35 51.94922 4.43524 0 ft 2 kts 326°
2026-04-25 10:36 51.94939 4.43506 1 ft 4 kts 340°
2026-04-25 10:36 51.94966 4.43532 1 ft 6 kts 50°
2026-04-25 10:36 51.94994 4.43599 0 ft 8 kts 57°
2026-04-25 10:36 51.95027 4.43652 0 ft 7 kts
2026-04-25 10:37 51.95068 4.43618 0 ft 7 kts 327°
2026-04-25 10:37 51.95106 4.43579 0 ft 6 kts 327°
2026-04-25 10:37 51.95143 4.43540 0 ft 6 kts 327°
2026-04-25 10:37 51.95182 4.43499 0 ft 7 kts 327°
2026-04-25 10:38 51.95211 4.43469 0 ft 3 kts 327°
2026-04-25 10:38 51.95213 4.43467 0 ft 0 kts 327°
2026-04-25 10:39 51.95221 4.43459 0 ft 0 kts 327°
2026-04-25 10:41 51.95237 4.43440 0 ft 7 kts 313°
2026-04-25 10:41 51.95216 4.43333 1 ft 13 kts 236°
2026-04-25 10:42 51.95168 4.43215 0 ft 13 kts 238°
2026-04-25 10:42 51.95130 4.43089 1 ft 12 kts 245°
2026-04-25 10:42 51.95114 4.42959 0 ft 12 kts 296°
2026-04-25 10:42 51.95178 4.42879 0 ft 12 kts 327°
2026-04-25 10:43 51.95241 4.42905 1 ft 11 kts 56°
2026-04-25 10:43 51.95336 4.43141 1 ft 58 kts 57°
2026-04-25 10:43 51.95703 4.44061 0 ft 134 kts 57°
2026-04-25 10:43 51.96302 4.45581 259 ft 171 kts 56°
2026-04-25 10:44 51.96882 4.47024 1245 ft 156 kts 55°
2026-04-25 10:44 51.97410 4.48430 2152 ft 161 kts 56°
2026-04-25 10:44 51.97989 4.50111 2793 ft 185 kts 57°
2026-04-25 10:44 51.98643 4.52054 3438 ft 207 kts 59°
2026-04-25 10:45 51.99309 4.54240 3924 ft 224 kts 61°
2026-04-25 10:45 52.00080 4.56506 4484 ft 233 kts 48°
2026-04-25 10:45 52.01354 4.58250 5069 ft 248 kts 28°
2026-04-25 10:45 52.02937 4.59457 5782 ft 257 kts 21°
2026-04-25 10:46 52.04559 4.60572 6831 ft 254 kts 26°
2026-04-25 10:46 52.05976 4.62346 7609 ft 262 kts 44°
2026-04-25 10:46 52.07257 4.64527 8402 ft 267 kts 45°
2026-04-25 10:46 52.08546 4.66757 9180 ft 275 kts 45°
2026-04-25 10:47 52.09879 4.69055 9951 ft 282 kts 45°
2026-04-25 10:47 52.11249 4.71390 10621 ft 292 kts 44°
2026-04-25 10:47 52.12716 4.73878 10822 ft 318 kts 46°
2026-04-25 10:47 52.13930 4.77031 11085 ft 342 kts 70°
2026-04-25 10:48 52.14200 4.80937 11672 ft 355 kts 92°
2026-04-25 10:48 52.14013 4.84977 12383 ft 360 kts 93°
2026-04-25 10:48 52.13803 4.89066 13130 ft 364 kts 94°
2026-04-25 10:48 52.13599 4.93202 13850 ft 369 kts 93°
2026-04-25 10:49 52.13408 4.97397 14519 ft 374 kts 93°
2026-04-25 10:49 52.13288 5.00197 14972 ft 376 kts 93°
2026-04-25 10:49 52.13056 5.05902 15910 ft 380 kts 93°
2026-04-25 10:49 52.12886 5.10221 16516 ft 386 kts 93°
2026-04-25 10:50 52.12714 5.14602 17180 ft 389 kts 93°
2026-04-25 10:50 52.12541 5.19014 17858 ft 393 kts 93°
2026-04-25 10:50 52.12364 5.23474 18482 ft 397 kts 94°
2026-04-25 10:50 52.12183 5.27979 19018 ft 401 kts 94°
2026-04-25 10:51 52.11998 5.32533 19578 ft 405 kts 94°
2026-04-25 10:51 52.11812 5.37114 20143 ft 408 kts 94°
2026-04-25 10:51 52.11622 5.41733 20687 ft 411 kts 94°
2026-04-25 10:51 52.11428 5.46399 21215 ft 415 kts 95°
2026-04-25 10:52 52.11204 5.51093 21721 ft 418 kts 98°
2026-04-25 10:52 52.10558 5.55713 22219 ft 421 kts 110°
2026-04-25 10:52 52.09434 5.60039 22720 ft 422 kts 120°
2026-04-25 10:52 52.07818 5.64106 23224 ft 423 kts 128°
2026-04-25 10:53 52.06086 5.67911 23713 ft 426 kts 131°
2026-04-25 10:53 52.04153 5.71567 24118 ft 428 kts 134°
2026-04-25 10:53 52.02157 5.75172 24547 ft 430 kts 134°
2026-04-25 10:53 52.00168 5.78805 24969 ft 432 kts 134°
2026-04-25 10:54 51.98181 5.82490 25370 ft 435 kts 134°
2026-04-25 10:54 51.96840 5.84997 25643 ft 437 kts 134°
2026-04-25 10:54 51.94189 5.89945 26171 ft 440 kts 134°
2026-04-25 10:54 51.92178 5.93690 26538 ft 442 kts 134°
2026-04-25 10:55 51.90148 5.97463 26913 ft 445 kts 134°
2026-04-25 10:55 51.88112 6.01244 27276 ft 447 kts 134°
2026-04-25 10:55 51.86060 6.05046 27633 ft 450 kts 134°
2026-04-25 10:55 51.83990 6.08860 27991 ft 452 kts 134°
2026-04-25 10:56 51.81905 6.12675 28350 ft 454 kts 134°
2026-04-25 10:56 51.79810 6.16502 28689 ft 456 kts 134°
2026-04-25 10:56 51.77698 6.20355 29009 ft 459 kts 134°
2026-04-25 10:56 51.75580 6.24220 29320 ft 461 kts 134°
2026-04-25 10:57 51.73453 6.28102 29647 ft 463 kts 134°
2026-04-25 10:57 51.71315 6.32005 29935 ft 465 kts 134°
2026-04-25 10:57 51.69167 6.35920 30216 ft 468 kts 134°
2026-04-25 10:57 51.67005 6.39859 30447 ft 470 kts 134°
2026-04-25 10:58 51.64839 6.43792 30766 ft 469 kts 134°
2026-04-25 10:58 51.62676 6.47716 31142 ft 468 kts 135°
2026-04-25 10:58 51.60522 6.51615 31535 ft 466 kts 135°
2026-04-25 10:58 51.58370 6.55504 31892 ft 464 kts 135°
2026-04-25 10:59 51.56226 6.59374 32231 ft 463 kts 135°
2026-04-25 10:59 51.54085 6.63233 32552 ft 463 kts 135°
2026-04-25 10:59 51.51945 6.67086 32892 ft 462 kts 135°
2026-04-25 10:59 51.49806 6.70931 33231 ft 461 kts 135°
2026-04-25 11:00 51.47669 6.74769 33579 ft 460 kts 135°
2026-04-25 11:00 51.45542 6.78582 33894 ft 459 kts 136°
2026-04-25 11:00 51.43410 6.82400 34172 ft 459 kts 136°
2026-04-25 11:00 51.41279 6.86205 34430 ft 458 kts 136°
2026-04-25 11:01 51.39855 6.88687 34638 ft 456 kts 138°
2026-04-25 11:01 51.37629 6.92297 34904 ft 455 kts 140°
2026-04-25 11:01 51.35354 6.95817 35119 ft 455 kts 140°
2026-04-25 11:01 51.32317 7.00432 35439 ft 454 kts 140°
2026-04-25 11:02 51.30030 7.03908 35701 ft 454 kts 140°
2026-04-25 11:02 51.28492 7.06256 35883 ft 453 kts 140°
2026-04-25 11:02 51.26221 7.09735 36120 ft 452 kts 140°
2026-04-25 11:02 51.23953 7.13221 36350 ft 452 kts 140°
2026-04-25 11:03 51.21688 7.16706 36542 ft 453 kts 140°
2026-04-25 11:03 51.19422 7.20192 36766 ft 452 kts 140°
2026-04-25 11:03 51.17162 7.23666 37012 ft 451 kts 140°
2026-04-25 11:03 51.14906 7.27129 37250 ft 451 kts 140°
2026-04-25 11:04 51.12639 7.30601 37425 ft 451 kts 140°
2026-04-25 11:04 51.10380 7.34056 37609 ft 452 kts 140°
2026-04-25 11:04 51.08111 7.37522 37836 ft 451 kts 140°
2026-04-25 11:04 51.05852 7.40967 38069 ft 450 kts 140°
2026-04-25 11:05 51.03595 7.44404 38251 ft 450 kts 140°
2026-04-25 11:05 51.01338 7.47836 38423 ft 450 kts 140°
2026-04-25 11:05 50.99072 7.51277 38592 ft 451 kts 140°
2026-04-25 11:05 50.96805 7.54716 38793 ft 450 kts 140°
2026-04-25 11:06 50.94541 7.58143 38933 ft 450 kts 140°
2026-04-25 11:06 50.92274 7.61571 39038 ft 450 kts 140°
2026-04-25 11:06 50.90008 7.64994 39139 ft 451 kts 140°
2026-04-25 11:07 50.85467 7.71841 39158 ft 451 kts 140°
2026-04-25 11:07 50.80940 7.78620 39158 ft 452 kts 140°
2026-04-25 11:08 50.76321 7.85477 39159 ft 453 kts 140°
2026-04-25 11:08 50.71752 7.92247 39156 ft 454 kts 140°
2026-04-25 11:09 50.67141 7.99066 39162 ft 455 kts 140°
2026-04-25 11:09 50.62518 8.05886 39158 ft 455 kts 140°
2026-04-25 11:10 50.58143 8.13103 39162 ft 458 kts 131°
2026-04-25 11:10 50.54201 8.20980 39154 ft 458 kts 130°
2026-04-25 11:11 50.50260 8.28847 39147 ft 458 kts 131°
2026-04-25 11:11 50.46284 8.36660 39138 ft 458 kts 131°
2026-04-25 11:12 50.42295 8.44444 39132 ft 458 kts 131°
2026-04-25 11:12 50.38311 8.52203 39131 ft 457 kts 131°
2026-04-25 11:13 50.34139 8.59615 39131 ft 456 kts 135°
2026-04-25 11:13 50.29770 8.66807 39132 ft 456 kts 136°
2026-04-25 11:14 50.25397 8.73991 39137 ft 456 kts 135°
2026-04-25 11:14 50.21036 8.81210 39133 ft 457 kts 135°
2026-04-25 11:15 50.16674 8.88452 39130 ft 458 kts 135°
2026-04-25 11:15 50.12305 8.95689 39134 ft 459 kts 135°
2026-04-25 11:16 50.05732 9.06538 39120 ft 459 kts 135°
2026-04-25 11:16 50.01334 9.13770 39137 ft 460 kts 135°
2026-04-25 11:17 49.96933 9.20985 39120 ft 461 kts 135°
2026-04-25 11:17 49.92517 9.28205 39128 ft 460 kts 135°
2026-04-25 11:18 49.88100 9.35405 39114 ft 461 kts 135°
2026-04-25 11:18 49.83688 9.42578 39121 ft 460 kts 135°
2026-04-25 11:19 49.79271 9.49737 39118 ft 459 kts 135°
2026-04-25 11:19 49.74890 9.56820 39115 ft 458 kts 135°
2026-04-25 11:20 49.70479 9.63929 39113 ft 458 kts 135°
2026-04-25 11:20 49.66064 9.71026 39116 ft 458 kts 135°
2026-04-25 11:21 49.61644 9.78111 39121 ft 458 kts 135°
2026-04-25 11:21 49.57220 9.85183 39128 ft 458 kts 135°
2026-04-25 11:22 49.53505 9.91106 39124 ft 459 kts 135°
2026-04-25 11:22 49.48346 9.99308 39131 ft 459 kts 135°
2026-04-25 11:23 49.43899 10.06358 39133 ft 460 kts 135°
2026-04-25 11:23 49.39440 10.13408 39141 ft 460 kts 135°
2026-04-25 11:24 49.34974 10.20450 39126 ft 461 kts 135°
2026-04-25 11:24 49.30464 10.27542 39124 ft 461 kts 135°
2026-04-25 11:25 49.26007 10.34531 39133 ft 462 kts 135°
2026-04-25 11:25 49.21066 10.40840 39141 ft 460 kts 150°
2026-04-25 11:26 49.15581 10.45759 39141 ft 460 kts 151°
2026-04-25 11:26 49.10037 10.50684 39144 ft 461 kts 150°
2026-04-25 11:27 49.04512 10.55669 39145 ft 462 kts 150°
2026-04-25 11:27 48.99888 10.59861 39135 ft 462 kts 150°
2026-04-25 11:28 48.93471 10.65666 39139 ft 462 kts 150°
2026-04-25 11:28 48.87943 10.70650 39150 ft 462 kts 150°
2026-04-25 11:29 48.82432 10.75671 39122 ft 462 kts 146°
2026-04-25 11:29 48.77695 10.82214 39140 ft 462 kts 132°
2026-04-25 11:30 48.73441 10.89505 39116 ft 461 kts 132°
2026-04-25 11:30 48.69183 10.96769 39109 ft 461 kts 132°
2026-04-25 11:31 48.64893 11.03974 39105 ft 461 kts 133°
2026-04-25 11:31 48.60618 11.11098 39104 ft 460 kts 133°
2026-04-25 11:32 48.56316 11.18243 39103 ft 460 kts 133°
2026-04-25 11:32 48.52006 11.25385 39181 ft 463 kts 135°
2026-04-25 11:33 48.47634 11.32605 39111 ft 470 kts 135°
2026-04-25 11:33 48.43208 11.39903 39111 ft 473 kts 135°
2026-04-25 11:34 48.38752 11.47231 39107 ft 475 kts 135°
2026-04-25 11:34 48.34275 11.54570 39101 ft 476 kts 135°
2026-04-25 11:35 48.29794 11.61901 39102 ft 476 kts 135°
2026-04-25 11:35 48.25271 11.69141 39101 ft 473 kts 139°
2026-04-25 11:36 48.20462 11.75834 39103 ft 471 kts 141°
2026-04-25 11:36 48.15591 11.82382 39101 ft 469 kts 141°
2026-04-25 11:37 48.10755 11.88929 39099 ft 468 kts 141°
2026-04-25 11:37 48.05948 11.95480 39105 ft 467 kts 141°
2026-04-25 11:38 48.01151 12.02015 39103 ft 466 kts 141°
2026-04-25 11:38 47.96360 12.08524 39097 ft 466 kts 141°
2026-04-25 11:39 47.91563 12.15022 39101 ft 466 kts 141°
2026-04-25 11:39 47.86757 12.21514 39098 ft 466 kts 141°
2026-04-25 11:40 47.81945 12.27998 39100 ft 467 kts 141°
2026-04-25 11:40 47.77119 12.34483 39104 ft 468 kts 141°
2026-04-25 11:41 47.72277 12.40973 39099 ft 469 kts 141°
2026-04-25 11:41 47.67426 12.47463 39097 ft 469 kts 141°
2026-04-25 11:42 47.62640 12.53718 39085 ft 469 kts 146°
2026-04-25 11:42 47.59938 12.56393 38867 ft 470 kts 153°
2026-04-25 11:42 47.57092 12.58811 38284 ft 472 kts 155°
2026-04-25 11:43 47.54227 12.61150 37731 ft 468 kts 155°
2026-04-25 11:43 47.51377 12.63458 37136 ft 467 kts 155°
2026-04-25 11:43 47.48537 12.65770 36549 ft 465 kts 155°
2026-04-25 11:43 47.45715 12.68088 35972 ft 464 kts 155°
2026-04-25 11:44 47.42898 12.70418 35299 ft 464 kts 155°
2026-04-25 11:44 47.40118 12.72730 34663 ft 464 kts 155°
2026-04-25 11:44 47.37271 12.75101 34010 ft 465 kts 155°
2026-04-25 11:44 47.34485 12.77422 33238 ft 466 kts 154°
2026-04-25 11:45 47.31668 12.79768 32731 ft 461 kts 154°
2026-04-25 11:45 47.28888 12.82083 32194 ft 457 kts 154°
2026-04-25 11:45 47.26129 12.84375 31699 ft 453 kts 154°
2026-04-25 11:45 47.23391 12.86645 31212 ft 450 kts 154°
2026-04-25 11:46 47.20680 12.88890 30715 ft 446 kts 154°
2026-04-25 11:46 47.17986 12.91117 30266 ft 442 kts 154°
2026-04-25 11:46 47.15315 12.93322 29721 ft 438 kts 154°
2026-04-25 11:46 47.12674 12.95500 29227 ft 433 kts 154°
2026-04-25 11:47 47.10058 12.97656 28719 ft 429 kts 154°
2026-04-25 11:47 47.07476 12.99780 28272 ft 423 kts 154°
2026-04-25 11:47 47.04914 13.01886 27758 ft 421 kts 154°
2026-04-25 11:47 47.02369 13.03975 27303 ft 417 kts 154°
2026-04-25 11:48 47.00698 13.05346 27007 ft 415 kts 154°
2026-04-25 11:48 46.98183 13.07406 26516 ft 413 kts 154°
2026-04-25 11:48 46.95681 13.09454 26051 ft 411 kts 154°
2026-04-25 11:48 46.93182 13.11497 25573 ft 410 kts 154°
2026-04-25 11:49 46.90668 13.13550 25103 ft 408 kts 154°
2026-04-25 11:49 46.88229 13.15540 24663 ft 406 kts 154°
2026-04-25 11:49 46.85772 13.17542 24190 ft 404 kts 154°
2026-04-25 11:49 46.83319 13.19539 23703 ft 402 kts 153°
2026-04-25 11:50 46.80886 13.21519 23135 ft 400 kts 153°
2026-04-25 11:50 46.78466 13.23486 22658 ft 395 kts 153°
2026-04-25 11:50 46.76081 13.25425 22226 ft 390 kts 153°
2026-04-25 11:50 46.73708 13.27349 21736 ft 389 kts 153°
2026-04-25 11:51 46.71353 13.29257 21303 ft 387 kts 153°
2026-04-25 11:51 46.69003 13.31157 20843 ft 386 kts 153°
2026-04-25 11:51 46.66655 13.33055 20387 ft 386 kts 153°
2026-04-25 11:51 46.64310 13.34947 19936 ft 385 kts 153°
2026-04-25 11:52 46.61974 13.36832 19490 ft 384 kts 153°
2026-04-25 11:52 46.59638 13.38716 19050 ft 383 kts 153°
2026-04-25 11:52 46.57310 13.40592 18614 ft 382 kts 153°
2026-04-25 11:52 46.54982 13.42465 18125 ft 383 kts 153°
2026-04-25 11:53 46.52651 13.44339 17610 ft 382 kts 153°
2026-04-25 11:53 46.50330 13.46207 17171 ft 380 kts 153°
2026-04-25 11:53 46.48022 13.48059 16701 ft 379 kts 153°
2026-04-25 11:53 46.45728 13.49897 16311 ft 373 kts 153°
2026-04-25 11:54 46.43424 13.51598 15830 ft 371 kts 161°
2026-04-25 11:54 46.40937 13.52441 15422 ft 366 kts 176°
2026-04-25 11:54 46.35951 13.51643 14553 ft 360 kts 194°
2026-04-25 11:55 46.33506 13.50864 14091 ft 360 kts 194°
2026-04-25 11:55 46.31065 13.50088 13647 ft 359 kts 194°
2026-04-25 11:55 46.28617 13.49333 13144 ft 360 kts 194°
2026-04-25 11:55 46.26168 13.48596 12717 ft 358 kts 193°
2026-04-25 11:56 46.23729 13.47871 12260 ft 358 kts 193°
2026-04-25 11:56 46.21292 13.47152 11815 ft 357 kts 193°
2026-04-25 11:56 46.18837 13.46438 11233 ft 361 kts 193°
2026-04-25 11:56 46.16382 13.45731 10792 ft 359 kts 193°
2026-04-25 11:57 46.13954 13.45035 10565 ft 352 kts 193°
2026-04-25 11:57 46.11582 13.44355 10381 ft 343 kts 193°
2026-04-25 11:57 46.09275 13.43694 10240 ft 333 kts 193°
2026-04-25 11:57 46.07029 13.43048 10097 ft 325 kts 193°
2026-04-25 11:58 46.04835 13.42418 9954 ft 317 kts 193°
2026-04-25 11:58 46.02707 13.41809 9958 ft 305 kts 193°
2026-04-25 11:58 46.00660 13.41222 9939 ft 296 kts 193°
2026-04-25 11:58 45.98673 13.40642 9868 ft 288 kts 194°
2026-04-25 11:59 45.96736 13.40072 9771 ft 281 kts 194°
2026-04-25 11:59 45.94837 13.39516 9627 ft 276 kts 193°
2026-04-25 11:59 45.92983 13.38973 9560 ft 269 kts 194°
2026-04-25 12:00 45.89382 13.37920 9389 ft 258 kts 194°
2026-04-25 12:00 45.87641 13.37412 9322 ft 252 kts 194°
2026-04-25 12:00 45.84292 13.36441 9129 ft 241 kts 194°
2026-04-25 12:01 45.82645 13.35991 8942 ft 241 kts 188°
2026-04-25 12:01 45.80973 13.35897 8742 ft 238 kts 182°
2026-04-25 12:01 45.79335 13.35916 8366 ft 238 kts 181°
2026-04-25 12:01 45.77707 13.35931 8198 ft 227 kts 182°
2026-04-25 12:02 45.74985 13.34337 7293 ft 217 kts 240°
2026-04-25 12:02 45.74515 13.32336 6922 ft 213 kts 265°
2026-04-25 12:02 45.74471 13.30232 6527 ft 211 kts 270°
2026-04-25 12:03 45.74494 13.28130 6067 ft 211 kts 271°
2026-04-25 12:03 45.74514 13.26050 5677 ft 207 kts 270°
2026-04-25 12:03 45.74537 13.24018 5233 ft 207 kts 274°
2026-04-25 12:03 45.75020 13.22112 4783 ft 207 kts 307°
2026-04-25 12:04 45.76159 13.20864 4291 ft 211 kts 336°
2026-04-25 12:04 45.77603 13.20523 3883 ft 210 kts 355°
2026-04-25 12:04 45.79067 13.20515 3590 ft 211 kts 357°
2026-04-25 12:04 45.80521 13.20554 3288 ft 207 kts
2026-04-25 12:05 45.81819 13.21183 3196 ft 195 kts 42°
2026-04-25 12:05 45.82453 13.22836 3097 ft 193 kts 73°
2026-04-25 12:05 45.82746 13.24765 2818 ft 200 kts 85°
2026-04-25 12:05 45.82855 13.26749 2556 ft 200 kts 89°
2026-04-25 12:06 45.82880 13.28750 2257 ft 201 kts 91°
2026-04-25 12:06 45.82887 13.30725 2031 ft 195 kts 92°
2026-04-25 12:06 45.82870 13.32623 1804 ft 185 kts 92°
2026-04-25 12:06 45.82854 13.34421 1525 ft 174 kts 92°
2026-04-25 12:07 45.82843 13.36084 1305 ft 160 kts 92°
2026-04-25 12:07 45.82834 13.37695 1122 ft 161 kts 92°
2026-04-25 12:07 45.82823 13.39294 852 ft 159 kts 93°
2026-04-25 12:07 45.82823 13.40858 657 ft 157 kts 92°
2026-04-25 12:08 45.82810 13.42435 434 ft 159 kts 95°
2026-04-25 12:08 45.82810 13.44003 180 ft 154 kts 95°
2026-04-25 12:08 45.82795 13.45500 49 ft 144 kts 94°
2026-04-25 12:08 45.82785 13.46693 45 ft 90 kts 90°
2026-04-25 12:09 45.82783 13.47299 48 ft 44 kts 90°
2026-04-25 12:09 45.82771 13.47629 47 ft 20 kts 118°
2026-04-25 12:09 45.82671 13.47759 46 ft 19 kts 141°
2026-04-25 12:09 45.82578 13.47870 46 ft 16 kts 140°
2026-04-25 12:10 45.82492 13.47972 46 ft 16 kts 140°
2026-04-25 12:10 45.82415 13.48065 46 ft 10 kts 140°
2026-04-25 12:10 45.82365 13.48126 46 ft 9 kts 140°
2026-04-25 12:10 45.82327 13.48173 46 ft 6 kts 139°
2026-04-25 12:11 45.82300 13.48207 46 ft 4 kts 138°
2026-04-25 12:11 45.82281 13.48231 46 ft 4 kts 138°
2026-04-25 12:11 45.82264 13.48258 46 ft 4 kts 121°
2026-04-25 12:11 45.82246 13.48287 46 ft 4 kts 148°
2026-04-25 12:12 45.82219 13.48296 46 ft 4 kts 171°
2026-04-25 12:12 45.82201 13.48300 46 ft 4 kts 171°
2026-04-25 12:12 45.82188 13.48303 46 ft 0 kts 170°